Location: Geroldsau
(48.7259°N, 8.2466°E)
Time: 08:20:40
(UTC+00:00)

Nadezhda 4 Rocket - Pass Details

Date: 20 June 2021
Orbit: 950 x 991 km, 82.9° (Epoch: 01 August)

Event Time Altitude Azimuth Distance (km) Brightness Sun altitude
Exits shadow 00:30:50 23° 172° (S) 1,929 5.0 -16.5°
Maximum altitude 00:34:49 69° 95° (E) 1,020 4.1 -16.3°
Drops below altitude 10° 00:40:55 10° 13° (NNE) 2,688 7.7 -16.0°
Sets 00:43:25 0° 12° (NNE) 3,637 8.8 -15.9°
